Weather History for Sioux Falls, SD

Change the Weather History Date:

Friday, October 5, 2012

  Actual Average Record
Temperature  
Mean Temperature 39 °F 53 °F  
Max Temperature 50 °F 65 °F 94 °F (1963)
Min Temperature 28 °F 40 °F 20 °F (1952)
Degree Days  
Heating Degree Days 26 13  
Month to date heating degree days 70 60  
Since 1 July heating degree days 233 264  
Cooling Degree Days 0 0  
Month to date cooling degree days 0 0  
Year to date cooling degree days 1182 685  
Moisture  
Dew Point 22 °F    
Average Humidity 53    
Maximum Humidity 79    
Minimum Humidity 24    
Precipitation  
Precipitation 0.00 in 0.09 in 4.04 in (1911)
Month to date precipitation T 0.45  
Year to date precipitation 14.82 22.61  
Snow  
Snow 0.00 in 0.10 in T in (1991)
Month to date snowfall 0.0 0.1  
Since 1 July snowfall 0.0 0.1  
Since 1 September snowfall 0.0 0.1  
Snow Depth 0.00 in    
Sea Level Pressure  
Sea Level Pressure 30.31 in    
Wind  
Wind Speed 13 mph (NW)    
Max Wind Speed 26 mph    
Max Gust Speed 36 mph    
Visibility 10 miles    
Events      
T = Trace of Precipitation, MM = Missing Value Source: NWS Daily Summary

Daily Weather History Graph

Daily Weather History Graph

Search for Another Location

Airport:

Trip Planner

Search our weather history database for the weather conditions in past years. The results will help you decide how hot, cold, wet, or windy it might be!

Date:

Astronomy

Oct. 05, 2012 Rise Set
Actual Time 7:29 AM CDT 6:59 PM CDT
Civil Twilight 7:01 AM CDT 7:28 PM CDT
Nautical Twilight 6:27 AM CDT 8:01 PM CDT
Astronomical Twilight 5:54 AM CDT 8:35 PM CDT
Moon 10:15 PM CDT (10/5) 12:47 PM CDT (10/5)
Length of Visible Light 12h 27m
Length of Day
11h 30m
Waning Gibbous, 74% of the Moon is Illuminated
Oct 5
Waning Gibbous
Oct 8
Last Quarter
Oct 15
New
Oct 21
First Quarter
Oct 29
Full

Hourly Weather History & Observations

Time (CDT) Temp. Windchill Dew Point Humidity Pressure Visibility Wind Dir Wind Speed Gust Speed Precip Events Conditions
12:56 AM 36.0 °F - 26.1 °F 67% 30.32 in 10.0 mi Calm Calm - N/A   Clear
1:56 AM 30.9 °F 26.2 °F 24.1 °F 76% 30.31 in 10.0 mi WNW 4.6 mph - N/A   Clear
2:56 AM 34.0 °F 28.8 °F 26.1 °F 73% 30.30 in 10.0 mi WNW 5.8 mph - N/A   Clear
3:56 AM 35.1 °F 26.9 °F 26.1 °F 70% 30.30 in 10.0 mi NW 11.5 mph - N/A   Clear
4:56 AM 32.0 °F 23.6 °F 25.0 °F 75% 30.30 in 10.0 mi NW 10.4 mph - N/A   Clear
5:56 AM 30.9 °F 26.2 °F 25.0 °F 79% 30.31 in 10.0 mi WNW 4.6 mph - N/A   Clear
6:56 AM 30.0 °F 23.2 °F 24.1 °F 79% 30.32 in 10.0 mi WNW 6.9 mph - N/A   Clear
7:56 AM 30.0 °F 21.1 °F 24.1 °F 79% 30.32 in 10.0 mi NW 10.4 mph - N/A   Clear
8:56 AM 33.1 °F 24.4 °F 25.0 °F 72% 30.32 in 10.0 mi NW 11.5 mph - N/A   Clear
9:56 AM 37.9 °F 30.5 °F 23.0 °F 55% 30.32 in 10.0 mi NNW 11.5 mph - N/A   Clear
10:56 AM 42.1 °F 32.3 °F 19.9 °F 41% 30.32 in 10.0 mi NW 24.2 mph 31.1 mph N/A   Clear
11:56 AM 44.1 °F 35.4 °F 21.0 °F 40% 30.32 in 10.0 mi WNW 21.9 mph 28.8 mph N/A   Clear
12:56 PM 46.0 °F 39.0 °F 21.0 °F 37% 30.32 in 10.0 mi WNW 17.3 mph 26.5 mph N/A   Clear
1:56 PM 46.9 °F - 21.0 °F 36% 30.30 in 10.0 mi WNW 17.3 mph 31.1 mph N/A   Clear
2:56 PM 48.9 °F - 21.0 °F 33% 30.28 in 10.0 mi NW 17.3 mph 29.9 mph N/A   Clear
3:56 PM 48.9 °F - 21.0 °F 33% 30.26 in 10.0 mi WNW 18.4 mph 27.6 mph N/A   Clear
4:56 PM 48.0 °F - 19.9 °F 33% 30.26 in 10.0 mi NW 23.0 mph - N/A   Clear
5:56 PM 46.9 °F - 18.0 °F 32% 30.27 in 10.0 mi NW 19.6 mph - N/A   Clear
6:56 PM 42.1 °F 34.2 °F 18.0 °F 38% 30.29 in 10.0 mi NNW 16.1 mph - N/A   Clear
7:56 PM 37.9 °F 31.5 °F 18.0 °F 45% 30.31 in 10.0 mi NW 9.2 mph - N/A   Clear
8:56 PM 36.0 °F 28.5 °F 18.0 °F 48% 30.33 in 10.0 mi NW 10.4 mph - N/A   Clear
9:56 PM 34.0 °F 26.6 °F 18.0 °F 52% 30.33 in 10.0 mi NW 9.2 mph - N/A   Clear
10:56 PM 32.0 °F 24.2 °F 18.0 °F 56% 30.33 in 10.0 mi NW 9.2 mph - N/A   Clear
11:56 PM 28.9 °F 21.9 °F 19.0 °F 67% 30.34 in 10.0 mi NW 6.9 mph - N/A   Clear